{"data":{"norad_id":52336,"epoch":"2026-09-20T01:53:03.167232Z","epoch_age_seconds":96068,"freshness":"FRESH","line1":"1 52336U 22045F   26263.07850888  .00002335  00000+0  82324-4 0  9990","line2":"2 52336  53.1621  40.0110 0001059 101.9502 258.1619 15.33543082245218","mean_motion":15.33543082,"eccentricity":0.0001059,"inclination_deg":53.1621,"raan_deg":40.011,"arg_perigee_deg":101.9502,"mean_anomaly_deg":258.1619,"bstar":8.2324e-5,"rev_number":24521,"period_min":93.900198625134,"perigee_km":464.52665217836,"apogee_km":465.97608183449,"semimajor_km":6843.3883670064,"source":"CELESTRAK","updated_at":"2026-09-20T09:00:40.021962Z"}}